CAPE
1769 1834 2194 2360 2495 2523 2355 2721 2747 2683 2642 2618 2631 2578 2370 2201 1966 1924 1930 2057 1760 1666 1276 976 921 878 779 667 651 739 1036 966 876 825 977 1309 1125 1277 1342 1363 1274 1238 1162 1417 1663 1552 1342 1564 1293 1286 1339 1342 1236 1531 1518 1500 1400 1495 1443 1412 1522 1532 1629 1674 1659 1592 1506 1540 1429 1414 1247 1153 1026 1062 1453 1317 1237 1192 1155 1184 1130 814 1006 1176 1244
1870 1632 2178 2345 2376 2464 2439 2544 2622 2677 2563 2608 2570 2479 2340 2097 2032 2080 2042 1785 1522 1232 1039 969 895 856 743 730 736 1022 1123 943 1081 1188 1213 1383 1400 1306 1439 1508 1260 1360 1514 1398 1642 1527 1482 1437 1362 1337 1515 1520 1603 1607 1580 1566 1542 1405 1369 1380 1415 1537 1594 1587 1686 1511 1453 1421 1354 1385 1326 1274 1170 1196 1240 1287 1329 1311 1284 1116 964 862 944 1148 1188
1754 1656 2124 2106 2420 2306 2460 2526 2598 2542 2524 2466 2426 2333 2308 2176 2088 1978 1685 1536 1304 1124 1092 1075 891 814 740 740 844 1183 1377 1409 1393 1381 1424 1431 1354 1500 1613 1523 1524 1688 1497 1680 1548 1500 1415 1550 1380 1289 1437 1284 1380 1508 1574 1479 1361 1360 1397 1335 1362 1435 1455 1451 1597 1793 1784 1800 1792 1623 1396 1261 1228 1144 1147 1136 1222 1202 1151 1201 930 749 826 932 884
1552 1647 1787 2010 2226 2382 2369 2382 2382 2376 2326 2337 2330 2239 2092 2020 1826 1729 1496 1385 1243 1206 1091 979 812 787 759 796 716 967 1463 1621 1519 1410 1387 1365 1520 1653 1620 1611 1521 1452 1520 1476 1489 1466 1753 1638 1744 1551 1554 1363 1370 1500 1436 1416 1321 1178 1232 1364 1273 1324 1410 1436 1444 1821 1996 1945 2005 950 933 1060 1025 1057 1088 1064 990 1076 1097 1264 1186 1091 1129 1215 1186
1582 1306 1322 1781 2046 2242 2242 2267 2187 2240 2256 2228 2129 2069 1979 1867 1770 1680 1510 1374 1393 1173 999 865 794 782 771 763 680 636 1227 1490 1518 1451 1333 1398 1747 1710 1663 1643 1704 1662 1491 1520 1626 1539 1640 1550 1389 1332 1442 1441 1356 1148 1135 1354 1283 1280 1284 1152 1066 980 942 1017 1005 1153 1895 2253 1635 880 636 838 881 894 956 959 1024 1024 1040 1356 1346 1312 1265 1239 1240
1446 1150 1519 1631 1579 2084 2138 2159 2095 2001 2066 2056 2054 1983 1928 1808 1640 1514 1410 1294 1197 1038 906 824 774 700 575 738 764 711 920 1541 1742 1660 1748 1646 2029 1813 1664 1624 1738 1517 1675 1606 1602 1607 1503 1571 1576 1412 1297 1259 1316 1281 1410 1362 1282 1098 1093 983 831 760 729 628 892 1164 1127 1307 2236 1586 377 339 546 855 899 807 864 894 837 856 840 967 1184 1049 897
1663 1298 1241 1435 1349 1723 2007 2049 2081 2040 1999 1922 1824 1796 1681 1512 1394 1303 1229 1048 1037 947 894 902 760 691 632 693 785 720 734 1218 1890 1925 1934 2023 2038 1948 1633 1573 1681 1782 1622 1583 1700 1532 1691 1594 1654 1475 1397 1342 1341 1517 1308 1237 1147 1086 871 809 773 641 484 666 558 649 1155 809 503 160 142 174 521 677 792 755 797 666 717 821 795 745 1110 976 745
1513 1434 1295 971 1337 1975 1951 1848 1753 1861 1916 1821 1739 1624 1470 1422 1233 1170 970 924 970 929 844 847 794 757 712 645 627 676 723 1078 1485 1651 1961 2051 2031 2080 1706 1784 1873 1754 1597 1648 1669 1621 1581 1648 1653 1567 1452 1371 1314 1355 1326 1284 1105 996 754 590 410 421 530 197 447 430 628 605 161 183 187 227 272 498 1047 1102 900 658 757 754 836 828 674 599 621
1589 1175 1072 1376 1239 1591 1884 1812 1705 1632 1629 1664 1600 1440 1337 1270 1165 991 928 1046 968 874 885 877 849 856 753 672 617 655 747 958 1112 1476 1915 1943 1806 1853 2004 1621 1834 1782 1737 1972 1809 1468 1369 1550 1820 1852 1718 1710 1729 1448 1444 1286 1093 801 583 358 263 161 171 317 216 632 1587 162 242 251 215 155 240 406 995 1151 1097 1076 1053 762 594 594 637 586 432
1490 1349 1147 1403 1523 1913 1864 1785 1682 1436 1407 1324 1284 1293 1244 1172 1112 937 893 996 946 976 964 867 891 936 784 768 738 754 883 912 1124 1778 2171 2055 2162 2049 1802 1685 1676 1622 1586 1443 1368 1398 1628 1735 1852 1792 1735 1655 1494 1240 1228 1182 1091 723 497 376 372 515 565 739 984 1315 129 158 293 331 345 304 242 542 724 970 982 961 1028 932 891 764 784 589 398
1478 1260 1234 1583 1434 1852 1770 1769 1630 1510 1462 1359 1246 1232 1111 1126 1063 987 1046 1062 913 903 946 917 983 881 958 853 764 841 930 1023 1200 1618 1826 1730 1587 1565 1426 1496 1532 1572 1536 1378 1298 1532 1799 1898 1829 1822 1606 1393 1255 1176 1052 1088 930 632 431 537 422 389 793 473 750 36 12 0 2 13 245 352 252 742 827 804 758 743 712 811 939 893 846 694 572
1503 1548 1443 1663 1902 1653 1800 1748 1566 1559 1522 1403 1368 1225 1134 1033 977 1125 1128 999 944 938 1196 1223 1188 1054 1046 939 925 995 1045 1045 1374 1620 1520 1478 1359 1285 1305 1462 1447 1477 1435 1327 1289 1611 1895 1838 1738 1592 1404 1351 1264 1191 1058 921 907 649 566 481 786 543 638 733 1267 329 384 394 523 442 334 268 254 628 762 754 716 667 693 698 716 780 690 530 556
1630 1637 1730 1822 1144 1804 1826 1732 1539 1522 1500 1378 1324 1127 1071 1055 1090 1093 1149 1322 1246 1088 1074 1206 1389 1541 1320 1174 982 994 1155 1671 1718 1594 1508 1424 1310 1211 1327 1312 1418 1503 1438 1247 1311 1568 1683 1792 1617 1449 1501 1425 1383 1182 1108 958 802 598 520 512 408 510 677 814 840 298 425 268 188 289 382 404 465 573 653 683 586 527 567 605 597 550 499 417 595
1626 1853 1650 1343 945 1615 1770 1665 1679 1575 1432 1404 1362 1306 1280 1296 1256 1266 1335 1539 1305 1241 1495 1666 1660 1434 1490 1663 1601 1451 1614 1738 1699 1627 1507 1372 1330 1231 1349 1407 1468 1453 1351 1128 1268 1671 1637 1611 1670 1542 1495 1497 1360 1252 1113 915 680 528 460 602 628 663 773 854 474 524 397 560 562 339 383 389 508 652 508 486 444 442 459 360 400 811 989 1009 981
1823 2161 1633 1222 1240 1250 1717 1653 1673 1618 1611 1574 1509 1560 1608 1591 1579 1566 1649 1439 1138 1338 1542 1520 1611 1794 1824 1790 1686 1552 1607 1633 1663 1586 1490 1420 1414 1428 1521 1498 1446 1434 1234 1175 1412 1746 1818 1759 1603 1577 1453 1394 1236 1140 960 867 620 532 521 497 461 531 740 741 263 415 516 358 311 340 363 330 583 381 263 268 507 601 660 706 580 906 976 1012 967
2140 1895 1527 1383 884 1485 1102 1538 1642 1727 1718 1601 1639 1688 1725 1652 1639 1630 1734 1584 1539 1490 1555 1635 1774 2006 1865 1752 1623 1647 1768 1732 1644 1410 1368 1277 1306 1384 1425 1437 1444 1390 1212 1152 1499 1725 1817 1772 1725 1550 1400 1287 1152 1019 932 775 614 503 568 631 387 667 902 1803 373 152 190 271 279 392 314 200 466 827 888 789 883 950 888 789 694 797 872 880 847
2302 1942 1530 1219 1335 1050 903 1008 1227 1670 1784 1757 1789 1829 1798 1802 1791 1804 1853 1669 1577 1474 1471 1651 1799 2040 1962 1752 1733 1765 1854 1670 1556 1498 1331 1259 1291 1300 1323 1454 1407 1419 1298 1396 1737 1858 1910 1835 1668 1514 1411 1212 1046 920 738 668 575 466 552 393 557 860 1073 2028 495 704 514 586 595 324 232 322 602 792 1079 1053 994 863 796 695 598 594 785 746 786
1802 1540 1682 1176 1076 787 1072 986 1026 1242 1367 1503 1861 2015 1920 1777 1768 1818 1950 1915 1741 1561 1678 1674 1672 1883 1902 1867 1831 1936 1856 1644 1601 1421 1356 1243 1230 1258 1355 1293 1272 1454 1541 1578 1817 1907 1830 1874 1772 1518 1388 1164 954 767 628 532 523 580 397 546 398 653 1052 1524 811 473 563 490 426 494 404 855 920 811 795 840 781 808 696 660 648 554 645 652 634
1796 1358 1230 1205 1296 922 1105 954 846 852 1228 1123 1357 1818 1875 1794 1785 1812 1821 1852 1818 1672 1667 1648 1725 1758 1912 2096 2166 2014 1850 1714 1555 1352 1202 1136 1100 1096 1173 1183 1227 1382 1480 1462 1730 1845 1916 1878 1802 1518 1343 1170 880 715 595 509 450 343 550 384 758 463 1146 1200 480 430 602 538 463 379 297 943 999 651 654 606 629 539 598 488 480 496 468 468 427
1300 1166 1270 1424 1821 1371 1335 827 861 951 940 1073 1347 1504 1747 1865 1885 1824 1708 1801 1828 1718 1624 1621 1540 1775 1937 2097 1973 1878 1702 1512 1433 1316 1270 1202 1076 969 1122 1209 1244 1328 1329 1474 1831 1788 1826 1906 1768 1475 1243 1062 922 749 647 503 417 399 393 524 586 792 1284 585 497 443 419 432 390 312 573 601 464 442 416 384 303 268 212 261 193 194 209 230 212
1476 1398 1605 1449 1120 1604 1831 824 993 1080 1272 1140 1234 1478 1604 1852 1840 1668 1655 1741 1860 1682 1574 1526 1532 1592 1832 2052 1952 1834 1639 1538 1276 1050 1257 905 1081 1081 1174 1246 1140 1197 1266 1531 1826 1848 1823 1855 1588 1455 1191 879 863 761 617 574 478 505 353 707 696 1083 822 696 698 689 482 434 429 307 401 404 371 250 202 100 238 220 118 82 82 83 80 129 132
1801 1596 1469 1464 1210 1271 1459 2173 1458 1539 1493 1602 1444 1392 1700 1747 1503 1571 1389 1690 1746 1616 1384 1003 1038 1282 1631 1811 1786 1482 1468 1164 1281 1023 990 1196 1090 1154 1054 1122 1093 1134 1656 1619 1706 1736 1792 1797 1509 1302 1236 956 798 513 578 696 561 399 759 653 821 1010 1029 722 568 516 488 436 290 182 194 202 200 188 156 112 60 24 128 134 119 87 66 99 72
1819 1663 1886 1499 1397 1340 1418 1385 1375 1240 1090 1214 1150 1446 1580 1471 1439 1287 1214 1410 1597 1638 1248 973 839 1015 1367 1473 1486 1822 1344 1440 1264 937 858 884 869 770 926 1056 1033 1421 1636 1592 1547 1558 1581 1566 1541 1303 1068 1051 738 886 589 239 378 567 679 852 1306 998 919 796 721 656 486 347 209 112 244 243 204 159 86 51 53 57 68 102 99 76 49 30 44
1946 1890 2094 1831 1511 1454 1486 1518 1325 1483 1603 1270 1359 1351 1533 1400 1322 1282 1219 1269 1265 1442 1323 1051 978 1030 1283 1590 1696 2120 1753 1809 1110 1134 1221 1166 946 955 903 930 1085 1279 1449 1515 1400 1462 1438 1455 1538 1422 1186 740 1009 1080 745 456 349 683 1066 1205 724 722 881 573 479 422 343 414 138 90 137 68 86 108 74 148 157 180 108 68 56 34 9 2 0
2110 1983 1991 1805 1770 1778 1513 1636 1553 1370 1559 1396 1456 1425 1560 1621 1285 1310 1396 1336 1253 1425 1673 1409 1158 1286 1422 1390 1975 1475 1471 1691 1043 1358 1044 879 731 631 697 642 652 806 1306 1309 1444 1722 1776 1678 1564 1354 906 956 1044 1114 1009 597 699 860 945 702 772 645 420 421 594 499 332 298 99 48 56 45 67 59 52 70 73 100 83 99 53 7 6 12 11
2179 2190 2306 1663 1990 1621 1495 1432 1388 1302 1207 1734 1159 1461 1465 1692 1398 2033 1369 1316 1740 1756 1273 1611 1606 1844 1588 1436 1987 1720 1363 1688 1481 1251 1005 917 733 561 331 511 437 522 554 621 837 1299 1420 1490 1151 835 1104 1258 1219 1119 998 628 558 713 772 910 560 639 531 288 199 446 189 155 60 62 53 126 75 98 149 72 6 121 102 42 18 9 4 3 20
2156 2400 2315 2285 1902 1568 1742 1432 1372 1274 1464 1697 1523 1220 1544 1359 1452 1348 1419 1579 1595 2004 1421 1115 1525 2340 2087 1790 923 1505 1689 1368 1095 1252 1064 940 1021 435 116 361 568 406 355 946 642 739 886 1118 1066 812 1228 1252 1042 953 619 467 578 524 582 774 676 350 391 260 318 458 287 126 93 94 101 7 3 121 64 65 11 7 3 13 13 16 26 30 20
1962 2151 2215 1461 1772 1833 1820 1938 1313 1211 1512 1445 1292 1582 1432 1170 1126 1074 1342 1566 1565 1811 1132 1079 1649 2105 2359 1817 1181 791 1372 1468 1462 1642 1381 767 932 802 623 326 391 240 291 948 526 537 672 1283 1121 1134 1263 1102 857 807 584 309 392 677 708 658 387 293 390 532 548 516 403 230 44 106 89 25 52 63 3 21 33 30 19 86 64 22 2 3 5
1843 1698 1655 1404 1422 1546 2045 1693 1250 1221 859 1354 1311 1036 1022 979 978 935 844 730 952 1495 1151 1364 1504 1490 1661 1422 1618 1107 1007 1481 1606 1533 1372 669 461 357 597 542 257 98 53 403 381 447 820 1235 1304 1304 1162 1011 932 530 578 534 439 498 539 561 451 452 478 410 533 602 594 441 234 156 86 7 45 0 0 42 94 163 184 126 63 10 11 10 15
1627 2097 1766 1346 1531 1216 1711 1204 1206 1516 1209 869 1393 1294 1175 971 843 746 735 962 1165 1226 1133 1635 1148 1164 1376 2061 1526 1339 1082 2244 1515 1342 1558 684 837 791 760 692 360 240 198 247 326 404 753 1109 1298 1246 959 1053 934 643 374 579 374 572 428 664 408 657 516 557 677 670 600 526 293 9 77 68 208 404 185 186 255 160 100 43 5 1 0 1 2
1999 2275 1566 1405 1484 1251 1121 1339 1350 1319 1668 1839 1622 1026 891 948 909 782 725 1308 1176 1051 1120 1648 1784 1874 1471 1436 1516 1501 1360 1083 1542 2024 1083 528 738 1230 1129 886 932 629 401 294 341 416 731 1142 1188 1040 884 962 937 846 294 506 547 490 548 333 622 563 674 767 810 703 467 334 242 81 25 27 133 150 136 157 92 28 3 3 3 6 3 5 6
2040 1566 1416 1323 1377 2173 1476 1395 1395 1382 1222 947 1130 913 879 878 751 810 1086 1401 1111 904 1406 1641 1465 1458 1118 1221 1408 1517 1234 1170 1179 1268 1330 1055 777 1191 1070 883 448 924 391 312 240 326 528 933 1070 1056 1051 902 903 964 582 790 540 343 422 537 626 681 737 902 781 751 620 523 404 228 25 30 182 77 46 14 4 0 0 1 10 14 11 5 8
1625 2030 1405 1711 1987 2370 2193 1763 1320 1287 1202 1268 1001 992 912 915 994 874 934 1058 1280 1119 970 991 1942 1299 1259 1159 846 861 1206 1203 1527 1560 1332 1211 1091 1115 1076 592 659 416 525 421 313 346 396 460 911 1188 1403 1064 1032 1056 922 849 836 687 563 810 765 622 889 926 861 752 561 491 535 411 374 256 165 52 124 61 0 0 0 0 3 7 6 2 3
1890 2048 1783 2177 1822 1766 1375 1420 1294 1140 1203 1094 958 993 839 1105 868 1383 910 1188 1219 1058 979 1221 1832 1508 1337 1405 1119 1235 1122 1155 877 1174 1374 1156 953 1024 861 865 695 677 509 573 541 451 360 385 508 797 698 861 1049 1183 980 954 722 848 692 890 877 1013 943 781 854 694 586 451 536 624 575 698 105 51 49 326 231 38 0 6 11 9 6 4 1
1787 2125 1868 1661 1458 1608 1429 1339 1244 1330 1170 985 771 816 1253 1096 1013 1327 1006 1386 1108 1408 1133 660 1234 995 947 1095 1024 801 799 763 985 734 1062 1504 1341 1052 1020 977 852 644 678 699 776 535 422 430 320 422 538 622 731 963 700 655 513 515 569 652 719 906 897 713 472 777 554 586 612 734 468 237 288 695 116 36 365 150 33 19 7 1 0 1 0
1818 1695 1364 1524 1554 1553 1185 1195 1172 1345 1302 1231 1257 864 1133 1782 1772 1774 1596 1181 1273 1438 1268 954 962 788 742 1036 847 874 806 769 1028 1265 909 1713 1655 1108 1217 1094 1038 766 502 563 460 394 424 525 388 310 199 379 414 552 540 468 404 426 567 796 1056 856 628 475 746 684 668 497 520 639 518 268 659 770 1085 1012 50 82 50 1 0 0 0 0 0
2106 2060 1739 1453 1415 1344 1478 1170 1166 1148 1259 1156 1059 1566 1788 1511 1754 1799 1833 1528 1650 1717 1296 1066 1098 1080 1018 856 894 845 615 662 897 418 874 1469 1621 1596 1518 1504 1391 933 623 597 662 484 529 545 564 354 279 308 328 393 460 445 711 506 568 772 785 720 804 545 708 657 867 739 738 609 523 505 492 505 564 508 233 0 23 0 0 0 0 0 0
1989 1875 1717 1658 2244 1676 1379 1488 1224 1386 1382 1335 1940 1864 1868 1718 1420 1478 1799 1710 1905 1326 1276 1171 829 675 830 866 712 685 653 697 640 620 721 1177 1616 1687 1371 1376 1335 1095 841 671 678 480 525 659 674 552 387 470 316 491 443 522 411 589 742 761 975 748 826 1024 992 549 718 770 751 455 396 819 422 434 518 637 382 0 0 0 0 96 109 247 18
1936 1897 1781 1858 1556 1875 2105 2092 2088 2394 2209 2099 2194 2004 1960 1855 1642 1799 1698 1780 1724 1083 1355 1481 1338 1087 1037 900 568 638 504 557 523 464 976 1619 1541 1350 1294 1066 1075 1273 976 665 570 327 491 1017 1216 1020 703 541 473 464 615 330 550 709 924 933 1496 1506 1198 1407 1134 720 676 743 646 217 627 472 750 638 552 559 618 1042 25 0 0 10 15 60 39
2146 1958 1806 1766 1912 1701 2090 2208 2302 2158 2209 1799 1479 1313 1559 1472 1500 1626 1452 1414 1576 1343 1427 1406 1405 1332 971 861 779 838 907 831 680 894 1286 1216 1413 1231 704 814 1058 900 1094 719 330 212 708 1230 1303 1262 844 774 446 497 731 658 874 961 782 783 1082 921 1122 908 866 944 625 466 400 280 337 477 678 711 780 618 452 264 701 80 253 278 136 226 270
2082 2020 2049 1983 1938 1933 2254 2110 1572 1532 1423 1293 1238 1300 1237 1538 1518 1437 1282 1242 1514 1675 1838 2541 1748 1534 1137 654 651 871 703 954 1483 1287 938 895 1009 916 905 1118 969 890 950 1187 921 489 953 1341 1481 1029 548 429 466 788 828 948 1005 941 1082 1079 750 708 966 885 869 817 634 613 530 327 463 476 636 589 384 591 530 568 256 724 820 682 411 297 253
1786 1744 1711 1769 1995 1833 1922 1892 2101 2002 2061 1588 1575 1430 1386 1252 1155 1140 1371 1339 1372 1579 1383 1624 1406 1322 1239 973 722 585 1248 1474 1390 922 1028 721 1306 880 1087 1544 993 856 627 569 646 1167 1219 1431 1286 1117 633 584 629 749 1055 1124 1250 1125 1067 382 638 382 512 683 619 405 895 610 697 426 450 650 787 704 727 527 437 562 560 780 862 1194 672 714 224
1571 1408 1480 1625 1618 1670 1728 1708 1705 1679 1821 1637 1519 1456 1507 1745 1555 1505 1434 1301 1615 1444 1241 1164 875 674 841 652 739 1044 791 1480 1154 970 1059 1484 915 766 389 1020 643 761 706 521 510 1671 1584 1582 1393 1220 979 829 529 942 1636 822 658 670 828 345 312 537 680 744 768 1046 690 666 586 457 488 784 776 654 430 564 292 734 369 701 645 728 1004 1186 877
1639 1421 1462 1490 1368 1584 1632 1628 1614 1550 1627 1610 1493 1431 1524 1422 1423 1436 1333 1418 1494 1502 1635 1443 1158 1046 703 654 600 1358 1668 1316 1203 1050 1218 734 402 428 468 391 658 803 632 575 993 1720 1623 1631 1182 1048 1234 839 425 1521 1530 1278 900 810 582 489 248 385 132 358 524 518 866 718 657 488 592 1092 894 628 503 477 223 538 518 659 440 469 463 714 536
1521 1320 1301 1484 1427 1258 1184 1278 1458 1352 1400 1379 1463 1654 1742 1551 1334 1329 1186 1285 1393 1364 1397 1341 1339 1291 1108 828 1167 1483 1074 896 949 904 794 601 588 706 553 554 533 678 657 557 552 1088 1462 1585 1298 1454 1164 910 518 1011 1336 1427 1312 670 637 325 698 596 263 393 606 704 700 695 694 817 869 809 1258 874 766 358 924 363 427 370 490 482 517 772 368
1272 1191 1276 1245 1095 1056 1001 1193 1223 1388 1377 1466 1446 1640 1596 1652 1408 1420 1310 1236 1096 1249 1172 1334 1583 1549 1135 1071 1367 1297 980 785 866 897 728 630 744 786 435 417 438 496 400 472 548 1213 1535 1279 1312 1617 1893 1562 1566 902 1003 1183 1488 1006 853 1011 698 460 427 459 330 541 695 883 754 876 1079 606 629 914 1008 554 530 396 478 732 586 523 669 548 594
1060 1135 1019 968 1272 1099 1088 1037 1363 1422 1428 1498 1468 1530 1678 1617 1580 1523 1417 1369 1204 1292 1281 1178 1307 1394 1543 1462 1266 1267 663 837 756 750 586 688 683 458 569 461 516 525 462 527 682 1019 1328 954 1608 1696 1663 1220 859 528 691 1046 1343 1269 824 782 645 983 859 614 614 602 479 505 457 467 444 612 868 875 735 465 614 901 567 483 498 324 626 749 833
902 1038 1117 1001 1057 1101 1409 1407 1354 1315 1508 1604 1389 1319 1492 1395 1425 1496 1334 1458 1507 1438 1390 1572 1724 1275 1328 1355 1359 1441 1165 780 1051 984 831 590 686 683 580 503 499 492 409 570 485 944 1838 1523 1218 1243 1175 1148 1014 548 591 929 674 581 682 723 820 1241 324 464 618 461 370 570 324 489 496 812 404 600 602 400 477 446 491 541 407 408 1447 470 516
740 800 1009 909 992 1072 1329 1350 1123 1476 1493 1617 1400 1556 1637 1251 1507 1484 1402 1246 1621 1655 1457 1402 1572 1367 1328 1475 1081 1124 1066 412 544 669 734 544 528 694 644 628 416 430 444 381 463 619 1688 2179 2158 1472 1921 1367 1001 858 611 532 960 968 535 701 905 482 670 472 364 385 239 261 352 268 589 545 812 504 664 603 493 917 764 568 508 406 904 385 466
664 731 820 914 1021 1026 920 1080 1242 1438 1332 1654 1548 1531 1540 1449 1454 1395 1346 1873 1916 1791 1756 1414 1490 1378 1229 1188 880 638 599 446 498 484 526 553 701 453 428 598 505 586 539 683 355 785 1548 1650 1858 1640 1414 1251 746 789 695 784 607 718 903 720 551 937 358 629 913 662 427 252 210 250 392 446 391 704 480 544 390 549 516 649 495 315 282 643 344
598 802 929 993 998 948 854 786 930 1094 1372 1487 1458 1438 1522 1369 1319 1288 1527 1701 1851 1945 1664 1683 1409 1338 1196 1082 970 802 698 547 616 772 780 816 598 750 583 462 552 714 584 574 699 618 1449 1395 1475 1248 769 834 1128 998 962 886 589 442 699 854 911 380 406 690 731 723 373 358 280 449 525 440 359 432 482 582 413 332 356 488 401 326 369 316 314
Wind_Speed
26 28 28 29 26 26 26 25 27 29 30 30 29 28 28 27 28 28 29 29 29 29 29 28 27 26 26 26 24 24 25 24 24 23 22 22 22 21 20 19 19 19 20 21 23 22 22 22 21 20 20 20 19 18 17 16 15 14 14 13 12 11 10 11 13 14 14 15 15 16 15 14 14 13 13 15 14 14 13 10 10 10 9 11 14
26 25 24 26 26 27 27 27 28 29 31 31 30 29 28 28 28 28 28 29 29 29 29 28 27 26 25 26 26 25 26 25 24 23 23 23 22 22 20 20 21 21 22 23 23 23 21 22 21 21 20 19 18 17 15 15 14 14 13 12 11 11 10 11 11 12 14 15 15 16 16 16 15 16 15 16 15 16 15 15 14 9 9 13 14
24 22 23 27 27 28 28 28 29 31 31 32 31 30 29 28 28 28 30 29 29 29 29 27 26 26 25 25 25 26 27 26 25 24 24 23 23 22 21 21 22 23 23 23 24 24 22 21 20 20 19 18 17 15 14 13 12 12 12 11 10 10 9 9 9 11 14 15 15 15 17 16 16 16 16 15 15 15 15 15 14 14 10 14 13
23 21 23 27 29 27 28 31 30 31 31 32 31 29 29 28 29 29 29 28 28 28 28 27 26 25 25 24 24 25 28 27 26 26 25 24 23 22 22 22 23 24 25 24 23 24 22 21 21 19 19 17 15 13 12 12 12 11 12 11 10 9 8 6 7 10 12 16 17 13 8 10 13 16 15 14 14 14 15 15 17 17 17 15 15
21 21 23 24 26 26 27 29 31 31 31 31 31 31 30 29 29 28 28 27 27 27 28 27 26 26 25 24 24 25 27 28 27 25 26 24 22 23 23 23 24 25 25 24 23 22 22 21 20 19 18 16 14 13 12 12 11 11 11 10 10 8 7 6 7 10 13 10 12 9 9 11 10 14 13 13 13 13 14 16 17 16 16 16 16
20 21 22 22 25 26 26 27 30 33 31 32 30 30 30 30 30 29 29 29 29 28 28 27 26 26 25 24 23 23 24 23 25 26 24 24 22 23 24 24 24 25 25 25 23 22 20 19 18 17 16 15 14 13 12 12 11 10 10 10 9 8 5 5 5 7 9 13 15 8 10 10 10 9 13 13 12 12 13 13 14 14 13 15 16
22 19 22 22 22 24 23 26 28 30 30 30 31 30 30 31 31 30 29 30 30 29 29 27 26 26 25 25 24 23 22 22 22 24 24 24 24 23 24 24 24 23 24 24 22 20 20 18 16 16 16 15 14 12 11 10 11 11 11 10 9 8 5 4 7 5 9 9 9 6 6 10 9 8 12 13 12 12 13 14 14 13 14 15 16
19 18 20 22 21 24 24 25 27 27 28 29 30 30 30 31 31 30 30 30 29 29 29 27 26 25 26 25 24 23 23 22 20 18 18 22 23 24 25 25 24 22 22 22 22 20 19 16 14 14 15 15 14 13 10 10 9 10 10 10 9 8 9 9 11 13 12 7 7 5 7 9 11 9 12 13 12 11 13 15 14 15 14 15 15
18 20 20 21 22 28 24 25 26 27 28 29 29 30 30 30 30 30 29 29 28 28 27 26 26 26 26 25 25 24 23 22 19 17 19 23 24 23 25 25 25 23 20 18 17 17 16 14 12 13 15 16 15 13 11 10 9 9 9 9 10 10 9 10 10 11 12 8 7 7 9 11 11 10 13 15 15 14 12 13 15 15 16 16 16
18 20 21 20 22 25 25 25 26 28 28 30 29 30 30 29 29 29 29 28 28 27 27 26 27 27 26 25 25 25 24 22 20 20 21 23 22 22 23 25 24 22 20 19 18 16 15 15 14 14 16 16 15 13 11 10 9 9 9 9 10 11 13 10 11 14 6 7 11 11 11 13 12 11 13 15 15 16 17 18 14 13 14 15 16
20 20 20 22 26 23 24 25 27 29 29 30 30 30 30 29 29 29 29 28 27 27 26 26 26 26 26 25 25 25 25 23 22 23 24 25 23 23 25 25 24 22 21 19 17 16 16 17 16 16 16 15 15 13 11 11 9 8 7 7 8 7 10 13 14 nan nan nan nan nan 13 15 12 12 14 15 16 16 17 16 15 16 16 16 16
21 20 21 23 29 22 24 25 27 28 29 30 30 30 29 29 29 29 29 28 27 26 25 25 24 25 25 25 25 26 26 24 24 25 26 26 26 26 27 26 24 22 20 19 17 16 16 17 18 17 16 16 15 13 12 11 10 8 6 5 5 8 7 14 14 9 10 11 12 12 13 14 13 13 15 16 16 16 16 16 16 16 16 16 16
21 20 23 26 25 24 24 25 27 28 29 29 29 29 28 28 29 29 29 27 26 25 26 25 24 23 22 23 26 27 26 25 24 25 26 27 27 27 27 27 25 22 21 20 19 18 18 18 19 19 17 16 15 13 12 11 10 9 6 3 7 10 13 14 11 13 13 13 13 14 14 12 12 13 14 15 15 15 16 16 16 16 17 17 17
23 25 24 25 24 28 26 25 25 26 27 26 26 26 27 27 27 28 27 26 26 25 24 23 24 23 22 23 24 26 26 25 24 25 26 26 27 28 27 27 26 22 21 20 19 18 18 18 19 18 18 16 14 13 12 11 10 8 6 4 4 6 8 10 13 14 15 14 12 14 13 11 11 13 14 15 16 16 16 16 17 18 18 18 18
24 25 27 27 26 26 30 26 25 26 25 24 23 25 26 25 25 25 25 28 27 24 23 23 23 22 25 25 26 27 26 26 25 26 26 27 27 28 27 27 26 23 21 20 19 19 18 18 18 18 17 17 15 13 11 10 8 7 3 1 5 4 8 5 13 15 15 16 16 16 14 12 11 12 14 16 17 17 18 18 17 19 19 19 19
25 27 30 29 28 28 27 28 26 25 24 24 23 24 24 24 24 25 25 27 26 23 22 22 22 24 26 25 26 26 27 27 26 27 27 28 29 29 29 27 26 24 22 20 20 20 20 19 19 18 18 18 17 15 12 10 7 5 3 1 3 5 8 6 15 17 16 15 15 15 15 14 12 15 15 16 17 18 19 19 18 19 20 20 20
26 29 31 32 32 28 26 25 26 26 25 23 23 23 22 23 23 23 25 26 26 23 21 22 23 25 25 26 26 26 27 26 26 27 28 29 29 30 30 28 26 24 23 21 20 22 22 21 20 19 18 17 17 15 13 11 8 6 4 3 3 5 4 4 15 14 15 17 17 16 14 14 13 16 18 17 17 18 19 19 18 19 19 19 20
28 31 33 33 30 28 25 26 26 25 26 25 25 23 23 24 23 24 25 26 25 23 22 22 23 24 26 26 26 26 27 25 25 27 28 29 29 31 32 30 26 23 21 20 20 23 24 22 21 20 18 17 17 16 14 12 9 7 5 6 5 4 4 4 16 15 16 15 15 15 14 14 15 16 15 16 16 17 18 19 19 19 19 20 20
31 36 28 25 24 26 27 27 27 28 29 26 26 28 30 28 26 26 26 26 25 24 23 22 23 24 25 26 27 26 26 25 24 25 27 29 31 31 31 30 27 22 20 19 20 23 25 23 22 21 20 18 17 16 14 13 10 8 7 8 8 7 6 8 17 16 16 15 14 14 14 14 17 16 15 15 17 17 18 18 19 19 19 20 20
31 29 23 19 23 25 27 26 28 29 29 30 29 32 35 35 31 29 29 27 26 26 25 23 23 23 25 26 27 27 26 24 25 25 27 28 31 32 33 31 28 24 19 18 19 22 25 25 23 22 22 21 19 16 15 13 10 8 8 10 9 9 9 11 13 15 14 14 14 14 15 16 17 16 15 16 17 18 19 18 18 18 18 19 19
28 27 24 25 22 20 21 24 28 31 29 29 27 32 35 38 34 32 31 29 27 27 26 25 24 23 23 24 25 24 23 22 22 22 26 26 27 31 35 32 29 26 22 17 18 22 24 25 24 23 22 23 20 18 16 13 9 7 9 8 8 8 11 13 15 15 15 16 16 16 17 17 17 17 17 17 18 19 18 nan nan nan nan 20 20
27 28 28 27 24 22 18 19 27 26 22 22 26 34 35 32 31 29 27 26 27 28 26 24 24 22 22 24 23 23 23 21 22 25 22 26 28 33 34 33 30 28 25 19 18 20 23 24 24 23 23 22 24 17 15 13 9 8 8 8 7 8 10 11 12 14 15 16 17 17 18 19 18 19 19 19 nan nan 20 20 20 nan nan nan nan
28 26 27 27 26 24 20 24 26 27 29 28 30 32 34 26 25 25 23 24 25 25 24 24 23 23 22 22 21 22 23 22 22 22 23 26 28 31 34 33 32 30 27 23 18 18 20 22 23 22 21 21 18 16 16 15 11 11 9 7 6 11 11 12 13 13 15 15 15 17 19 18 19 20 nan nan nan nan nan 22 nan nan nan nan nan
27 27 27 26 27 25 26 26 29 31 31 29 29 32 30 23 18 18 19 20 22 22 23 23 22 21 22 22 20 21 22 21 22 28 30 26 27 31 33 33 33 30 27 23 22 18 20 21 21 20 18 16 13 16 17 16 12 8 8 8 12 10 11 12 12 14 14 15 15 nan 16 nan nan 19 nan 21 21 22 22 nan nan nan nan nan nan
26 28 28 28 29 28 29 28 30 31 28 28 30 31 27 20 15 16 18 19 21 22 21 20 19 20 21 23 21 22 21 16 23 26 23 24 25 26 28 29 30 29 24 21 19 21 17 19 19 16 15 15 12 15 17 17 10 9 10 11 9 10 11 11 12 13 13 14 nan nan nan nan nan nan nan nan nan 23 nan nan nan nan nan nan nan
27 26 28 29 28 28 27 29 31 28 25 25 27 27 27 18 16 16 18 18 20 22 20 16 16 18 21 24 24 23 21 19 23 24 24 22 23 25 26 28 29 27 23 21 19 21 18 18 18 17 15 15 16 16 16 15 13 10 11 11 10 9 11 11 11 11 13 15 nan nan nan 17 nan nan 21 nan nan 23 21 nan nan nan nan nan nan
24 26 27 27 28 27 26 28 29 20 20 21 21 22 22 17 16 17 18 17 17 20 18 13 14 18 20 23 25 25 24 23 23 25 25 23 21 23 25 27 27 26 23 17 16 18 16 18 17 15 15 16 19 19 17 15 11 12 12 10 8 10 11 12 10 11 14 16 nan nan 16 nan nan 20 nan nan nan nan nan nan nan nan nan nan nan
24 28 26 26 27 26 23 24 29 20 19 21 19 18 19 18 15 16 13 12 17 16 18 11 14 20 20 22 23 26 26 24 26 26 26 25 22 21 23 25 24 24 23 19 18 14 13 18 18 16 16 18 19 19 16 17 12 10 13 10 10 9 11 12 12 11 12 14 nan 15 nan nan nan nan nan nan nan nan nan nan nan nan nan nan nan
24 24 25 27 27 20 21 26 26 23 23 16 18 22 19 17 19 13 9 14 20 19 16 12 22 20 19 24 23 25 26 26 27 27 26 23 23 22 21 21 22 nan nan 19 19 17 18 19 19 17 18 18 21 17 15 16 13 12 11 10 10 12 11 11 11 11 12 14 15 17 nan nan nan nan nan nan nan 19 20 21 nan nan nan nan nan
23 21 26 30 27 23 27 25 20 18 19 22 20 19 15 15 16 15 13 20 25 22 14 15 20 18 22 23 26 22 27 25 27 24 27 24 22 20 18 17 18 18 20 19 18 20 21 20 21 19 20 19 20 17 15 16 11 14 9 11 10 11 11 11 10 10 11 11 14 nan nan nan 13 13 15 19 20 20 20 nan nan nan nan nan nan
24 24 28 27 26 27 28 19 19 19 21 23 23 21 14 14 14 14 16 16 20 18 18 16 18 19 25 21 24 24 26 25 24 23 26 23 20 18 15 16 15 18 19 18 17 19 21 21 22 20 21 21 19 18 14 16 13 12 13 10 11 10 10 11 10 10 11 11 13 nan nan nan 15 16 16 17 nan nan nan nan nan nan nan nan nan
24 25 26 26 24 25 31 26 25 19 22 21 21 19 16 16 13 13 15 21 18 17 15 17 18 21 29 24 22 24 24 25 25 24 22 22 20 17 15 15 16 17 17 17 18 18 21 21 22 21 21 21 19 18 14 16 14 13 12 13 12 10 10 11 10 10 11 12 13 15 nan nan 15 nan nan nan nan nan nan nan nan nan nan nan nan
22 27 29 27 25 26 26 29 25 20 18 19 18 15 13 14 14 17 19 21 18 16 17 17 18 21 31 25 25 22 25 24 27 26 25 22 21 19 17 16 15 16 16 16 17 19 20 21 22 22 23 21 20 19 16 15 15 14 12 15 11 10 12 10 11 11 10 11 13 13 15 17 18 nan 18 nan nan nan nan nan nan nan nan nan nan
22 25 28 27 26 25 26 26 24 20 17 17 16 14 10 15 14 15 17 17 18 17 18 16 19 22 28 25 24 23 29 28 26 24 25 23 22 21 19 19 17 18 18 18 18 18 19 21 22 23 23 21 21 20 18 17 15 15 13 15 11 11 11 11 11 12 10 11 12 14 15 16 18 nan nan 18 17 nan nan nan nan nan nan nan nan
22 24 27 28 27 25 23 23 21 18 17 17 18 15 12 17 17 18 20 20 17 17 19 19 21 26 29 22 23 22 23 26 26 26 23 24 23 22 21 20 20 20 20 20 19 19 19 21 21 22 22 19 20 20 18 17 15 15 14 14 13 12 10 12 11 12 10 10 12 13 15 18 17 15 16 nan 16 16 nan nan nan nan nan nan nan
20 21 24 29 25 25 21 19 18 17 15 15 15 16 16 17 19 18 21 20 15 17 20 19 22 26 29 24 22 22 23 23 23 25 22 22 23 22 21 20 21 21 21 21 20 20 20 21 20 20 21 18 19 19 18 17 15 14 15 15 13 12 10 11 11 11 11 12 13 14 15 16 19 17 14 11 nan nan nan nan nan nan nan nan nan
20 19 19 25 26 25 24 23 21 17 16 15 15 18 17 19 19 21 20 23 20 18 18 18 21 28 29 21 19 21 22 21 23 20 18 21 22 23 22 22 20 21 21 21 19 18 20 21 19 17 18 17 18 18 18 17 17 16 15 14 13 13 11 13 12 11 12 10 12 14 14 17 19 16 16 10 16 nan nan nan nan nan nan nan nan
20 18 18 19 22 24 24 21 21 22 21 21 19 17 17 17 19 20 22 22 24 21 18 21 22 29 29 22 18 20 22 21 21 17 20 19 21 23 23 21 18 20 21 21 19 17 19 19 19 16 16 17 17 19 18 18 16 16 16 15 13 16 13 16 11 9 12 10 11 14 14 15 18 18 17 15 16 nan nan nan nan nan 12 10 nan
19 18 17 16 17 18 18 19 19 19 19 18 18 17 17 17 18 20 22 22 22 23 21 22 25 29 30 25 23 21 19 23 23 15 19 22 19 21 20 18 17 19 21 21 20 18 18 19 18 18 17 17 18 19 18 18 16 17 18 17 19 17 18 16 11 9 10 12 12 14 15 15 17 17 19 17 16 13 nan nan nan nan nan nan nan
18 17 16 15 15 15 16 17 17 17 17 17 16 14 16 17 18 21 21 22 22 20 21 22 25 29 32 29 25 22 19 22 27 21 22 20 17 20 16 13 19 21 20 20 19 18 19 19 19 19 20 18 18 18 20 19 19 18 19 21 21 19 15 15 10 5 8 12 11 13 14 17 15 16 16 16 18 16 11 nan 14 12 13 16 13
18 17 16 16 15 16 15 17 17 16 15 16 16 16 16 16 17 18 20 22 23 23 22 22 23 26 31 32 25 23 22 25 25 22 20 18 15 16 15 21 18 18 18 17 16 17 20 18 19 19 19 18 17 17 19 19 20 21 20 22 19 17 12 10 9 5 9 11 11 13 14 16 15 13 14 16 17 20 14 15 13 11 12 13 14
20 19 18 18 17 17 16 17 17 18 18 19 19 18 18 17 17 18 20 22 23 24 22 22 23 23 24 28 24 23 25 26 26 24 24 17 18 18 17 20 20 18 21 17 10 18 21 19 18 20 18 17 17 17 17 20 20 19 20 19 15 13 10 9 12 6 9 10 11 12 14 17 16 13 9 14 17 17 16 17 14 12 11 12 13
21 20 20 20 20 18 18 18 17 18 18 18 18 17 18 18 18 19 23 22 23 24 23 24 25 23 25 25 22 21 22 24 25 25 24 23 26 25 23 22 19 18 21 14 10 18 20 18 19 18 19 17 15 16 17 16 19 19 20 18 15 14 13 11 7 6 8 11 12 12 13 17 16 14 14 16 13 16 16 18 16 15 11 7 7
20 20 19 19 18 18 19 19 19 18 18 19 18 18 17 18 18 19 20 22 24 26 25 26 26 26 26 26 22 22 24 24 25 25 25 27 25 24 25 21 17 19 18 17 13 16 20 20 18 15 17 18 16 18 19 17 18 20 17 15 17 14 14 11 11 10 10 11 11 12 15 16 15 14 14 14 13 16 14 22 20 19 15 12 9
21 21 20 19 18 19 19 18 18 18 17 17 17 16 18 19 20 21 22 23 25 26 26 26 26 26 26 27 26 25 23 23 24 24 23 23 24 25 26 21 17 16 15 16 14 15 19 19 18 17 17 17 16 22 20 17 17 16 17 17 16 12 12 14 14 12 11 11 11 12 16 17 16 15 12 12 15 12 13 15 15 16 17 18 16
21 20 20 19 19 20 19 19 19 19 19 18 17 16 17 18 21 22 23 23 24 26 27 26 27 27 25 25 28 28 25 23 25 26 23 23 22 23 24 20 18 16 16 19 17 14 17 19 18 18 18 22 23 25 21 17 15 14 11 12 15 14 14 16 15 13 13 11 12 13 15 17 16 17 14 11 14 13 14 15 14 14 15 11 13
21 20 20 20 20 20 19 17 18 19 19 19 18 18 19 19 20 20 21 21 22 25 27 28 28 27 28 27 29 30 27 24 25 27 26 24 21 20 24 23 19 18 18 18 14 12 17 16 21 20 21 24 24 21 20 18 16 13 12 10 10 12 14 17 13 15 14 12 10 14 16 18 18 18 17 12 12 15 11 14 15 13 12 12 14
21 22 22 22 21 19 18 18 18 18 18 18 20 19 19 19 19 19 21 22 23 24 27 30 30 28 27 28 30 31 30 27 27 27 28 26 22 20 22 21 19 19 18 17 13 14 17 16 18 19 22 23 23 22 20 17 15 13 14 11 10 11 13 15 13 15 15 17 15 15 17 19 18 19 18 14 14 18 14 13 15 14 10 11 14
21 22 22 21 21 20 19 19 19 18 19 19 19 20 19 19 20 20 22 24 25 26 28 30 31 30 27 29 31 31 31 30 27 27 29 26 23 21 20 19 18 18 20 19 16 12 15 17 18 18 20 21 20 22 20 15 14 13 14 12 13 12 14 14 13 13 14 17 16 18 19 19 19 19 18 15 15 16 15 14 15 15 13 13 13
21 21 21 20 19 19 18 19 20 19 19 19 19 19 19 19 20 22 22 24 25 27 28 30 31 30 28 29 30 31 32 30 28 28 28 23 22 21 18 17 18 18 19 18 14 12 16 15 16 15 16 17 18 16 17 16 14 13 11 15 13 14 12 14 15 14 13 14 16 18 20 22 19 19 19 18 17 18 17 15 16 14 15 12 14
21 20 20 20 20 19 17 20 19 18 19 19 19 19 20 20 20 20 23 25 24 26 28 30 33 31 29 30 30 29 30 30 30 30 26 22 21 20 22 19 19 22 17 13 15 13 15 16 16 14 14 15 15 16 18 18 15 13 10 11 13 14 14 15 16 15 15 16 17 18 19 22 20 22 18 20 18 16 17 18 16 16 15 14 14
Wind_Direction
295 296 294 295 297 300 304 299 300 303 305 304 303 305 307 310 311 313 315 318 319 319 318 320 322 324 324 325 325 319 319 322 324 326 324 325 322 320 319 321 321 315 312 311 307 309 314 315 316 319 317 315 313 311 307 305 301 301 302 301 300 298 297 296 289 286 282 277 272 268 267 266 260 259 253 249 245 239 239 248 263 252 251 246 245
298 299 295 296 296 300 305 302 302 303 305 304 303 306 308 310 313 315 317 318 318 318 320 321 323 323 327 328 326 321 320 321 322 324 326 326 327 326 322 323 322 318 316 314 314 312 316 317 319 320 318 316 315 313 310 307 307 310 309 310 308 307 309 307 305 302 294 283 276 269 265 262 257 253 252 249 245 239 234 236 239 257 257 253 247
295 301 297 298 299 305 305 304 304 305 305 306 307 308 311 313 314 315 316 318 318 319 320 320 321 324 328 329 325 320 321 319 321 324 325 327 328 326 327 328 322 319 319 318 315 314 317 318 319 317 315 316 317 318 316 313 313 312 313 314 316 313 308 312 315 315 311 303 290 280 272 261 256 253 251 251 251 252 250 246 251 256 256 252 254
300 302 299 300 304 305 307 308 308 307 309 309 310 310 312 313 314 316 317 317 318 319 318 318 321 325 329 326 320 318 319 319 323 325 325 325 328 325 326 325 324 320 320 319 316 317 319 319 319 320 319 317 319 317 319 319 320 322 317 317 321 320 325 335 341 335 327 325 321 304 274 267 257 253 251 252 253 257 258 261 262 261 261 257 252
301 304 304 307 307 307 307 308 310 310 311 311 312 312 313 313 313 314 315 315 315 315 316 318 320 323 326 320 316 315 317 319 321 322 323 325 328 326 329 328 324 321 319 319 318 319 318 321 320 319 319 320 321 323 323 326 325 324 321 317 316 324 336 352 12 10 2 355 8 307 290 268 263 256 256 254 255 254 265 269 266 266 267 263 255
299 303 309 308 310 311 307 310 312 313 313 312 311 311 311 311 313 313 313 313 312 312 314 316 318 321 320 316 314 315 315 316 321 324 327 329 332 330 329 329 327 323 320 320 320 320 320 318 319 322 324 324 324 324 325 327 327 322 317 317 320 318 339 38 49 55 46 36 45 35 300 284 261 263 259 260 257 258 258 260 263 266 273 272 266
301 307 311 309 310 312 311 311 310 310 310 310 310 310 312 313 314 313 312 313 312 312 313 314 317 318 314 314 314 314 312 313 317 324 333 337 335 333 329 328 327 325 321 320 321 321 320 323 325 327 330 328 327 323 327 327 328 323 322 323 324 333 346 22 77 91 83 63 2 306 282 275 278 265 255 257 262 267 263 257 252 257 270 264 260
301 309 312 309 311 306 309 309 308 307 306 307 310 311 312 312 312 311 312 311 311 311 310 312 313 311 311 312 313 312 314 312 312 315 324 331 333 334 331 330 328 325 322 321 321 322 324 328 330 333 334 330 327 325 323 324 328 327 324 331 339 350 3 23 31 38 47 27 289 287 280 284 276 272 257 261 259 259 272 268 259 250 253 257 259
306 312 309 307 304 309 304 303 305 306 306 306 307 308 309 309 309 309 307 307 307 306 306 308 309 307 308 313 314 313 313 311 310 316 322 325 331 337 334 330 327 326 320 316 317 320 322 326 330 332 335 331 324 324 322 323 322 327 329 343 350 9 22 36 50 62 51 315 292 281 296 294 287 281 262 257 256 257 260 279 280 261 252 254 260
309 313 303 300 305 303 299 299 302 305 306 306 306 306 306 307 307 305 304 303 305 305 306 306 306 306 308 311 313 313 310 311 312 314 318 322 328 332 325 324 323 317 315 314 317 322 324 326 327 328 328 328 326 322 322 316 321 321 342 2 13 22 41 49 59 53 319 300 285 270 248 261 281 277 268 259 257 253 257 254 257 262 264 263 265
309 302 300 298 303 294 293 295 299 302 303 304 305 305 305 305 306 303 302 302 304 304 301 302 302 302 306 311 313 310 311 313 314 313 315 316 322 329 329 328 327 323 320 316 317 321 324 324 322 321 324 326 325 324 324 318 315 321 338 8 44 31 52 55 65 nan nan nan nan nan 281 272 275 279 273 268 262 263 264 264 263 264 266 268 270
302 298 294 286 288 285 287 291 296 298 299 302 303 305 305 305 304 303 302 301 300 300 298 297 297 298 302 309 311 310 312 314 312 313 316 316 322 331 334 334 332 325 318 315 315 320 325 324 321 321 323 328 330 325 325 323 312 317 339 20 33 73 67 67 59 310 292 288 281 281 282 285 286 281 276 274 272 273 269 266 265 266 270 274 273
301 292 288 288 291 283 284 286 293 296 297 300 302 304 304 303 303 303 302 300 299 298 297 296 294 294 301 305 308 309 307 307 310 313 316 320 324 330 335 334 330 325 320 318 317 320 324 326 323 323 325 329 329 328 324 323 323 320 345 7 41 44 53 59 21 309 311 312 314 303 294 289 287 282 285 282 281 279 275 273 273 277 276 276 272
291 285 287 288 288 287 280 283 286 291 294 297 300 299 300 301 302 302 301 298 298 294 292 292 293 295 297 295 299 303 303 306 310 313 316 319 324 329 331 331 331 326 321 319 317 318 322 326 324 323 325 325 326 324 324 323 325 337 348 29 97 111 105 80 301 312 308 298 293 291 291 293 292 287 283 287 286 285 288 284 279 275 274 272 272
296 295 289 283 285 286 282 277 281 285 288 290 291 294 296 298 299 298 297 298 297 292 291 293 293 291 294 299 299 301 304 307 312 316 318 320 322 324 328 331 331 325 323 319 316 316 318 322 323 321 321 323 323 322 320 319 328 337 341 197 138 128 114 43 315 312 311 311 310 304 299 303 293 303 295 289 288 286 285 287 284 280 279 278 276
296 290 284 281 281 278 280 280 278 281 284 287 288 289 293 294 296 296 294 294 292 291 289 288 287 288 294 298 299 302 305 310 312 316 319 324 323 325 328 331 332 328 323 320 314 313 315 317 320 321 320 321 320 318 316 318 319 334 314 207 105 104 88 75 317 313 314 310 305 301 301 302 310 294 290 291 289 288 286 284 284 282 280 278 276
289 289 283 278 278 276 277 286 284 281 282 282 284 287 289 292 292 291 289 290 291 290 287 284 282 286 291 295 298 301 304 310 312 316 320 322 325 325 327 327 333 332 324 320 314 310 313 315 317 318 318 315 314 313 314 313 320 315 348 71 60 72 86 95 301 304 306 310 311 310 310 311 307 298 296 292 289 288 288 288 288 284 281 278 275
285 276 271 271 272 275 283 287 292 294 292 288 286 287 292 295 290 287 284 284 285 285 280 278 278 282 289 293 298 302 304 308 312 315 319 320 322 324 325 327 330 331 325 318 312 309 310 313 314 313 311 308 307 309 309 310 312 328 352 43 51 42 44 73 309 311 307 301 303 303 306 300 296 298 294 289 288 289 290 290 288 289 284 282 278
263 256 260 281 289 290 298 299 299 298 301 302 305 305 304 301 295 288 286 284 282 282 279 276 277 279 286 291 295 299 299 304 308 313 318 318 321 321 323 323 325 329 326 315 308 306 306 311 310 310 307 303 302 305 305 304 315 341 17 34 45 38 52 24 317 318 311 311 312 310 310 320 312 302 294 291 290 288 289 293 294 294 289 285 284
273 281 301 306 295 306 306 300 297 298 305 307 308 312 314 307 302 295 290 287 286 286 284 280 282 282 287 294 299 300 301 303 307 310 316 318 319 326 320 320 322 322 321 310 301 301 304 307 308 307 305 303 300 300 303 306 316 358 15 37 32 40 20 319 293 301 306 305 308 313 304 300 298 293 293 290 289 287 287 291 294 290 291 286 283
283 290 290 295 294 291 300 303 307 308 312 311 309 316 318 312 302 301 297 293 293 293 291 291 288 289 292 297 302 303 304 303 312 310 315 319 324 316 319 318 319 318 316 305 291 293 298 302 305 305 306 305 302 302 301 309 333 353 31 35 40 27 309 321 320 313 311 315 311 311 306 304 300 299 294 292 291 293 294 nan nan nan nan 291 286
286 291 297 299 300 301 304 300 311 303 308 307 312 318 317 311 301 297 299 297 299 300 295 296 298 295 304 303 306 304 303 306 307 308 314 311 313 313 316 318 316 315 308 302 290 286 291 298 301 306 308 310 317 313 310 313 339 14 26 34 30 326 310 300 309 301 302 307 310 314 316 308 305 299 298 296 nan nan 294 292 288 nan nan nan nan
293 294 297 299 302 305 310 307 311 314 321 322 321 316 314 308 300 299 298 301 300 304 297 298 297 300 304 304 303 299 302 301 300 310 308 311 308 314 315 315 315 311 304 298 290 282 288 297 302 305 316 326 330 310 310 310 324 7 27 12 351 290 303 308 295 293 294 302 310 311 313 312 310 306 nan nan nan nan nan 300 nan nan nan nan nan
295 297 296 298 304 309 313 313 316 319 323 325 321 319 312 302 290 299 296 287 296 299 295 293 293 298 301 297 292 294 294 292 301 301 297 304 307 311 313 313 313 308 303 303 296 285 289 298 301 310 320 325 323 309 309 306 314 329 341 322 288 315 310 299 292 296 301 302 308 nan 313 nan nan 307 nan 305 301 308 304 nan nan nan nan nan nan
294 297 298 303 309 312 315 315 314 317 322 322 323 319 312 293 283 309 302 291 293 292 285 285 289 298 298 291 292 275 280 284 297 300 304 307 308 309 312 314 312 307 309 308 305 289 294 297 297 309 318 319 319 303 300 300 310 304 274 277 292 288 295 296 305 305 302 304 nan nan nan nan nan nan nan nan nan 312 nan nan nan nan nan nan nan
296 300 304 308 309 313 312 312 309 312 318 318 319 318 315 288 280 294 306 297 287 279 272 265 275 290 291 289 287 286 284 288 293 299 301 303 308 310 313 312 310 304 308 309 310 289 286 295 301 309 315 313 302 296 292 295 296 292 287 281 289 306 288 289 288 288 301 311 nan nan nan 312 nan nan 308 nan nan 310 309 nan nan nan nan nan nan
296 296 303 302 303 305 302 307 292 299 309 307 311 315 312 279 271 292 299 293 280 279 275 260 272 290 286 289 287 287 286 289 294 298 300 304 306 310 309 309 307 302 304 307 313 295 284 294 301 307 307 303 301 298 297 297 287 291 286 291 285 279 286 287 295 302 304 314 nan nan 318 nan nan 315 nan nan nan nan nan nan nan nan nan nan nan
298 290 300 298 293 293 297 302 301 310 306 313 314 310 300 278 266 263 260 263 258 283 276 266 298 286 285 277 286 289 287 285 293 296 301 302 307 306 302 305 304 301 305 313 318 306 294 298 304 306 302 300 304 302 296 289 296 284 281 284 286 284 281 281 287 292 306 312 nan 313 nan nan nan nan nan nan nan nan nan nan nan nan nan nan nan
271 287 281 284 286 287 308 309 297 310 316 311 314 321 312 295 292 286 299 322 313 303 276 305 299 290 285 292 284 286 286 288 292 295 295 302 306 305 305 303 301 nan nan 311 314 317 311 305 304 302 299 300 299 302 292 290 292 286 285 287 278 273 284 286 285 292 305 318 317 311 nan nan nan nan nan nan nan 320 317 319 nan nan nan nan nan
296 289 292 289 296 315 311 301 301 312 315 321 323 319 319 317 306 289 306 336 313 304 290 296 307 303 292 286 283 284 285 285 289 292 293 297 300 301 302 301 298 300 299 308 312 313 312 309 304 302 301 298 301 301 292 290 298 283 284 276 278 282 275 277 285 299 303 314 311 nan nan nan 305 312 324 324 322 323 324 nan nan nan nan nan nan
286 279 277 281 296 303 302 305 311 323 324 319 314 315 325 319 310 277 296 314 289 306 292 279 306 293 285 278 284 290 285 287 285 284 292 296 297 298 298 291 291 294 296 302 302 305 308 308 305 302 297 297 299 294 294 292 290 288 278 277 274 276 278 279 287 293 310 319 320 nan nan nan 315 318 313 323 nan nan nan nan nan nan nan nan nan
282 285 284 291 300 306 309 322 312 318 302 311 310 318 324 316 300 284 299 284 285 297 282 286 297 296 282 280 275 280 282 288 288 287 289 293 296 296 292 289 294 293 297 299 302 303 305 306 305 299 291 294 294 291 290 287 286 284 280 277 271 271 273 274 287 300 313 320 323 323 nan nan 324 nan nan nan nan nan nan nan nan nan nan nan nan
285 287 288 295 305 306 306 304 307 315 313 309 309 317 310 308 314 316 290 289 289 283 278 289 289 290 281 273 280 283 275 278 289 292 291 290 290 289 288 287 291 294 297 300 299 301 303 303 301 296 292 295 293 291 288 285 283 276 273 269 272 276 276 280 285 301 310 320 324 322 326 325 322 nan 316 nan nan nan nan nan nan nan nan nan nan
280 287 294 296 302 303 304 303 310 315 317 311 306 305 316 288 280 289 292 300 296 287 278 280 279 283 274 278 276 281 285 288 284 289 287 289 290 288 287 284 288 293 291 292 294 296 299 300 299 296 295 295 294 290 290 288 286 281 279 275 271 270 277 280 285 293 313 323 327 333 332 314 318 nan nan 315 315 nan nan nan nan nan nan nan nan
283 286 296 302 304 305 304 306 308 310 312 315 316 309 319 307 311 307 309 307 304 296 295 289 275 266 279 285 288 284 280 279 279 270 278 285 284 285 285 284 286 288 287 290 292 295 295 296 298 297 293 292 293 292 290 289 289 289 285 280 280 281 278 277 286 296 313 314 327 331 318 326 308 307 321 nan 321 318 nan nan nan nan nan nan nan
283 284 292 298 307 307 300 294 299 305 309 312 314 320 323 315 309 306 309 297 297 300 297 292 277 277 283 283 286 286 286 285 277 273 273 282 281 279 280 282 287 286 290 293 296 301 300 297 297 295 290 292 295 294 291 291 287 283 280 279 277 280 280 280 291 298 312 319 331 324 327 314 308 316 323 330 nan nan nan nan nan nan nan nan nan
279 284 290 299 305 303 307 312 318 315 315 323 332 326 322 320 313 311 308 305 304 295 287 284 277 275 279 274 280 290 293 288 278 273 262 272 277 273 274 277 277 286 291 292 295 299 300 298 295 291 288 291 294 296 292 290 285 285 282 282 281 276 276 275 287 302 301 321 321 322 323 317 308 320 317 352 323 nan nan nan nan nan nan nan nan
279 285 290 290 294 305 309 314 316 325 327 329 329 328 323 319 319 311 305 304 305 299 293 283 280 278 284 290 292 295 300 290 280 271 283 282 270 265 273 277 275 284 290 290 290 294 297 299 295 290 288 290 289 290 293 286 281 280 279 280 275 271 271 277 287 302 307 321 319 323 322 314 315 315 321 330 328 nan nan nan nan nan 319 317 nan
272 280 287 287 289 291 297 301 305 308 313 310 311 317 313 315 310 310 311 308 305 307 302 294 287 281 288 296 294 295 296 299 290 286 280 275 267 262 267 276 282 276 287 286 286 291 293 294 292 288 288 289 285 285 285 278 270 270 277 281 263 250 260 269 272 295 306 315 322 321 318 316 303 310 317 324 323 323 nan nan nan nan nan nan nan
269 275 283 290 291 289 287 293 292 295 299 288 295 309 311 311 311 311 309 305 304 303 302 295 288 292 292 290 288 289 295 302 304 293 273 273 267 259 262 282 281 289 283 282 283 287 293 296 292 290 290 289 286 283 282 272 263 269 276 268 258 255 253 262 273 275 299 312 315 316 316 312 303 306 321 313 318 326 330 nan 340 342 345 340 334
269 271 273 277 278 279 280 278 276 276 276 285 293 286 289 296 299 303 302 306 306 302 299 294 296 292 289 288 294 302 302 299 295 278 269 266 263 269 276 272 266 278 279 271 275 285 288 289 283 284 293 291 285 284 281 270 261 265 267 264 260 263 255 266 260 265 289 300 311 311 318 302 302 311 312 320 320 319 337 336 339 340 342 345 340
268 267 267 266 265 267 273 277 281 285 288 289 292 297 301 307 306 301 298 299 300 301 301 295 290 290 293 294 299 303 297 296 290 278 259 254 253 256 260 268 262 254 252 239 256 277 284 285 281 282 285 290 283 284 277 265 259 272 275 262 268 271 277 274 285 302 298 298 297 309 311 297 306 304 307 312 318 325 329 331 327 339 343 337 339
267 267 268 269 271 273 271 274 276 283 286 289 293 302 308 308 309 303 296 294 296 294 291 290 285 282 286 288 291 297 296 294 291 282 273 262 255 247 238 247 257 261 260 253 265 278 280 281 277 278 282 282 280 277 272 266 262 264 267 271 276 280 279 266 252 260 295 298 305 313 307 304 309 315 315 303 318 311 327 323 327 330 335 328 305
265 267 269 274 278 276 277 278 277 277 282 286 291 299 303 300 303 303 300 300 294 291 294 295 294 292 285 287 291 291 287 284 288 284 274 264 265 260 253 253 264 260 257 250 249 280 277 274 274 278 279 281 282 268 262 264 263 270 273 269 271 278 279 290 291 293 297 300 307 312 309 305 310 308 298 302 314 308 328 321 331 333 332 329 323
266 264 266 268 274 272 275 278 280 284 285 285 292 295 301 303 303 305 303 304 304 299 297 295 295 292 287 286 290 291 292 291 289 288 280 273 269 265 264 263 267 265 261 252 258 276 278 272 276 273 278 273 277 256 256 260 266 268 262 265 262 274 271 275 289 290 303 305 314 314 306 309 307 298 293 307 291 305 319 317 322 325 324 328 332
264 267 272 275 277 278 278 282 284 289 292 295 296 298 301 303 305 306 307 305 302 300 298 292 291 293 293 289 287 289 290 291 289 288 282 271 270 264 260 269 271 264 255 252 244 254 274 272 272 269 265 251 244 252 257 255 259 262 250 241 240 251 270 275 289 282 295 300 302 313 310 308 305 303 301 292 303 316 309 311 320 322 316 319 308
266 273 277 276 275 275 278 282 285 287 294 294 294 299 301 304 305 304 301 298 296 294 291 289 289 287 287 287 288 288 292 291 286 288 281 271 270 263 261 267 268 261 260 256 253 266 263 267 264 260 265 258 254 251 252 259 258 254 256 253 256 258 257 275 285 278 291 289 297 303 298 302 306 307 301 300 305 300 307 309 313 316 315 316 287
265 270 273 274 272 272 274 278 282 288 290 291 297 297 300 301 301 301 301 299 296 291 291 292 291 290 290 289 288 286 288 288 285 287 282 274 265 260 258 265 268 264 266 263 260 254 256 255 264 271 267 265 263 257 251 250 260 266 273 265 273 266 278 283 281 290 284 292 301 297 297 300 304 299 303 308 315 308 316 302 311 315 297 298 299
253 259 263 266 267 269 274 276 279 284 286 294 293 301 304 298 299 298 299 296 295 293 291 293 294 293 292 289 288 286 286 291 293 291 284 271 258 255 253 257 267 268 262 264 249 249 259 258 257 262 270 268 265 251 247 248 256 255 271 279 270 279 276 282 289 288 287 293 291 300 294 294 296 297 296 304 302 295 304 308 306 306 318 308 304
256 254 254 257 259 265 268 273 278 282 286 293 296 297 301 301 300 299 298 295 293 292 291 289 290 292 294 294 290 286 284 286 288 290 286 274 260 258 257 258 266 266 259 258 252 249 256 254 253 261 268 267 254 250 258 263 255 238 247 265 276 272 277 275 277 276 275 279 286 295 296 300 301 293 298 302 307 304 302 301 305 310 300 301 296
255 253 253 253 258 261 262 270 272 277 283 289 293 296 299 300 300 296 294 295 296 296 293 292 291 290 292 295 293 288 283 286 287 289 288 276 268 265 257 260 269 266 262 263 256 255 255 251 249 262 277 276 263 270 273 270 252 245 249 272 273 279 278 275 274 275 275 281 283 289 291 299 299 293 298 294 295 307 306 304 301 301 300 303 299